Location: Newark
(44.3248°N, 23.7839°E)
Time: 23:05:18
(UTC+00:00)

PCSat - Pass Details

Date: 15 April 2024
Orbit: 783 x 792 km, 67.1° (Epoch: 21 May)

Event Time Altitude Azimuth Distance (km) Brightness Sun altitude
Rises 02:56:34 0° 334° (NNW) 3,299 12.7 -8.3°
Reaches altitude 10° 02:59:15 10° 344° (NNW) 2,367 12.1 -7.9°
Maximum altitude 03:04:05 32° 47° (NE) 1,349 11.6 -7.1°
Drops below altitude 10° 03:08:53 10° 110° (ESE) 2,357 12.9 -6.3°
Sets 03:11:33 0° 120° (ESE) 3,282 13.4 -5.8°
